Rockfall
UTM 11U Easting = 46 9626, Northing = 56 97773     Elevation = 22240 m
Note to Users: This site contains raw data and is presented "as is" and in real time. Although reasonable care is exercised in providing this information, inaccuracies or omissions may occur due to the properties of weather and data collection systems. The Avalanche Control Section, responsible for its collection, disclaims all responsibility for the accuracy of the information.
Date Max Temp (deg C) Min Temp (deg C) Rel Hum (%) HS (cm) Wind Dir (1 Hr Avg) Wind Spd (kph) (1 Hr Avg) Max Wind Speed (kph)
2019-03-19 18:00 9 5 25 191 S 1 9
2019-03-19 19:00 5 3 30 190 S 3 9
2019-03-19 20:00 4 3 28 190 SE 5 11
2019-03-19 21:00 3 2 29 190 S 6 13
2019-03-19 22:00 3 3 26 190 SE 2 10
2019-03-19 23:00 3 2 29 190 SE 1 1
2019-03-20 00:00 3 2 30 190 SE 1 1
2019-03-20 01:00 3 2 30 190 SE 1 1
2019-03-20 02:00 2 2 31 190 S 1 1
2019-03-20 03:00 3 1 31 190 E 1 1
2019-03-20 04:00 2 1 31 190 S 1 1
2019-03-20 05:00 2 2 31 190 E 1 1
2019-03-20 06:00 2 1 31 190 NE 1 1
2019-03-20 07:00 2 1 32 190 NE 1 1
2019-03-20 08:00 4 2 30 190 NE 1 1
2019-03-20 09:00 5 4 29 191 SW 1 9
2019-03-20 10:00 6 5 29 191 S 6 13
2019-03-20 11:00 7 6 29 191 SW 2 10
2019-03-20 12:00 8 6 28 191 W 2 10
2019-03-20 13:00 9 7 29 189 NW 2 8
2019-03-20 14:00 10 8 29 189 NW 2 17
2019-03-20 15:00 10 9 26 189 NW 1 10
2019-03-20 16:00 10 9 25 189 NW 4 12